Вернуться в каталог

STARLINK-35196

АктивенСвязьVLEO
NORAD 66007·PAYLOAD·🇺🇸 United States

Запущен Oct 16, 2025 с Cape Canaveral Space Force Station

Loading…

Ближайшие Пролёты (ближайшие 24 часа)

TLE

СвежийSource: CelesTrak SupGP

Эпоха: Sep 15, 2026, 03:38 UTC

1 66007C 25232C   26258.15187500  .00019896  00000+0  58778-3 0  2581
2 66007  53.1573 302.3577 0001228  89.3050 303.4174 15.34383459    18

Отслеживайте STARLINK-35196 в реальном времени с AllMySat

Download on the App Store